Location: Fauquembergues
(50.6005°N, 2.0987°E)
Time: 07:04:12
(UTC+00:00)

CZ-2D R/B - Pass Details

Date: 14 July 2020
Orbit: 792 x 844 km, 98.7° (Epoch: 14 August)

Event Time Altitude Azimuth Distance (km) Brightness Sun altitude
Rises 02:18:20 0° 11° (N) 3,345 6.7 -11.4°
Reaches altitude 10° 02:20:43 10° 7° (N) 2,416 5.7 -11.2°
Maximum altitude 02:25:52 51° 293° (WNW) 1,033 2.6 -10.7°
Enters shadow 02:30:27 13° 221° (SW) 2,206 3.7 -10.3°
